{"data":{"norad_id":58130,"epoch":"2026-09-20T06:24:25.478784Z","epoch_age_seconds":160484,"freshness":"FRESH","line1":"1 58130U 23162N   26263.26696156  .00000237  00000+0  18155-4 0  9996","line2":"2 58130  43.0044 110.3406 0001791 266.4061  93.6586 15.27576984162103","mean_motion":15.27576984,"eccentricity":0.0001791,"inclination_deg":43.0044,"raan_deg":110.3406,"arg_perigee_deg":266.4061,"mean_anomaly_deg":93.6586,"bstar":1.8155e-5,"rev_number":16210,"period_min":94.266934830958,"perigee_km":481.82928699626,"apogee_km":484.28696709077,"semimajor_km":6861.1951270435,"source":"CELESTRAK","updated_at":"2026-09-21T09:00:33.792942Z"}}